Overview Statistics Trail Chart Weather Telemetry Raw packets
 

This is the latest recevied weather packets stored in our database for station/object N5ATR. If no packets are shown the sender has not sent any weather packets the latest 10 day(s).

<< 25 26 27 28 29 30 31 >>
Time Temp. Humidity Pressure Rain* Wind** Luminosity Snow
1788522005 18.33° C 62% 1021.7 hPa 0 mm - 0 W/m² -
1788521704 18.89° C 61% 1021.5 hPa 0 mm - 0 W/m² -
1788521404 19.44° C 58% 1021.2 hPa 0 mm - 0 W/m² -
1788521099 19.44° C 58% 1021.4 hPa 0 mm - 0 W/m² -
1788520795 19.44° C 59% 1021.5 hPa 0 mm - 0 W/m² -
1788520490 19.44° C 59% 1021.3 hPa 0 mm - 0 W/m² -
1788520186 19.44° C 59% 1021.4 hPa 0 mm - 0 W/m² -
1788519885 19.44° C 59% 1021.4 hPa 0 mm - 0 W/m² -
1788519580 19.44° C 59% 1021.3 hPa 0 mm - 0 W/m² -
1788519275 19.44° C 59% 1021 hPa 0 mm - 0 W/m² -
1788518971 18.89° C 59% 1021 hPa 0 mm - 0 W/m² -
1788518670 19.44° C 58% 1021.2 hPa 0 mm - 0 W/m² -
1788518367 19.44° C 58% 1021.2 hPa 0 mm - 0 W/m² -
1788518062 19.44° C 58% 1020.9 hPa 0 mm - 0 W/m² -
1788517758 18.89° C 58% 1020.9 hPa 0 mm - 0 W/m² -
1788517454 18.89° C 58% 1021 hPa 0 mm - 0 W/m² -
1788517149 18.89° C 59% 1021.3 hPa 0 mm - 0 W/m² -
1788516846 18.89° C 59% 1020.9 hPa 0 mm - 0 W/m² -
1788516541 18.89° C 59% 1020.9 hPa 0 mm - 0 W/m² -
1788516237 18.33° C 59% 1020.7 hPa 0 mm - 0 W/m² -
1788515931 18.33° C 62% 1020.9 hPa 0 mm - 0 W/m² -
1788515625 17.78° C 63% 1020.6 hPa 0 mm - 0 W/m² -
1788515321 17.78° C 64% 1020.6 hPa 0 mm - 0 W/m² -
1788515016 18.33° C 65% 1020.6 hPa 0 mm - 0 W/m² -
1788514713 17.78° C 62% 1020.6 hPa 0 mm - 0 W/m² -

* Rain latest hour (hover to see other rain measurements)
** Current wind speed in m/s (hover to see current wind gust speed)